Snowfall_Accumulation
0.0 0.0 0.0 0.0 0.0 0.0 0.0 0.0 0.0 0.0 0.0 0.0 0.0 0.0 0.0 0.0 0.0 0.0 0.0 0.0 0.0 0.0 0.0 0.0 0.0 0.0 0.0 0.0 0.0 0.0 0.0 0.0 0.0 0.0 0.0 0.0 0.0 0.0 0.0 0.0 0.0 0.0 0.0 0.0
0.0 0.0 0.0 0.0 0.0 0.0 0.0 0.0 0.0 0.0 0.0 0.0 0.0 0.0 0.0 0.0 0.0 0.0 0.0 0.0 0.0 0.0 0.0 0.0 0.0 0.0 0.0 0.0 0.0 0.0 0.0 0.0 0.0 0.0 0.0 0.0 0.0 0.0 0.0 0.0 0.0 0.0 0.0 0.0
0.0 0.0 0.0 0.0 0.0 0.0 0.0 0.0 0.0 0.0 0.0 0.0 0.0 0.0 0.0 0.0 0.0 0.0 0.0 0.0 0.0 0.0 0.0 0.0 0.0 0.0 0.0 0.0 0.0 0.0 0.0 0.0 0.0 0.0 0.0 0.0 0.0 0.0 0.0 0.0 0.0 0.0 0.0 0.0
0.0 0.0 0.0 0.0 0.0 0.0 0.0 0.0 0.0 0.0 0.0 0.0 0.0 0.1 0.0 0.0 0.0 0.0 0.0 0.0 0.0 0.0 0.0 0.0 0.0 0.0 0.0 0.0 0.0 0.0 0.0 0.0 0.0 0.0 0.0 0.0 0.0 0.0 0.0 0.0 0.0 0.0 0.0 0.0
0.0 0.0 0.0 0.0 0.0 0.0 0.0 0.0 0.0 0.0 0.0 0.0 0.0 0.0 0.0 0.0 0.0 0.0 0.0 0.0 0.0 0.0 0.0 0.0 0.0 0.0 0.0 0.0 0.0 0.0 0.0 0.0 0.0 0.0 0.0 0.0 0.0 0.0 0.0 0.0 0.0 0.0 0.0 0.0
0.0 0.0 0.0 0.0 0.0 0.0 0.0 0.0 0.0 0.0 0.0 0.3 0.0 0.0 0.0 0.0 0.0 0.0 0.0 0.0 0.0 0.0 0.0 0.0 0.0 0.0 0.0 0.0 0.0 0.0 0.0 0.0 0.0 0.0 0.0 0.0 0.0 0.0 0.0 0.0 0.0 0.0 0.0 0.0
0.0 0.0 0.0 0.0 0.0 0.0 0.0 0.0 0.6 1.2 2.8 1.5 0.0 0.2 0.0 0.0 0.0 0.0 0.0 0.0 0.0 0.0 0.0 0.0 0.0 0.0 0.0 0.0 0.0 0.0 0.0 0.0 0.0 0.0 0.0 0.0 0.0 0.0 0.0 0.0 0.0 0.0 0.0 0.0
0.0 0.0 0.0 0.0 0.0 0.0 0.0 0.0 1.3 4.4 3.2 1.3 0.3 0.6 0.0 0.0 0.0 0.0 0.0 0.0 0.0 0.0 0.0 0.0 0.0 0.0 0.0 0.0 0.0 0.0 0.0 0.0 0.0 0.0 0.0 0.0 0.0 0.0 0.0 0.0 0.0 0.0 0.0 0.0
0.0 0.0 0.0 0.0 0.0 0.0 0.0 0.0 0.0 0.8 5.7 4.6 0.1 0.0 0.0 0.0 0.0 0.0 0.0 0.0 0.0 0.0 0.0 0.0 0.0 0.0 0.0 0.0 0.0 0.0 0.0 0.0 0.0 0.0 0.0 0.0 0.0 0.0 0.0 0.0 0.0 0.0 0.0 0.0
0.0 0.1 0.0 0.0 0.0 0.0 0.0 0.0 0.6 0.7 6.2 4.8 0.0 0.0 0.0 0.0 0.0 0.0 0.0 0.0 0.0 0.0 0.0 0.0 0.0 0.0 0.0 0.0 0.0 0.0 0.0 0.0 0.0 0.0 0.0 0.0 0.0 0.0 0.0 0.0 0.0 0.0 0.0 0.0
0.0 0.0 0.0 0.0 0.0 0.0 0.0 0.0 0.0 0.0 0.7 4.0 3.3 0.5 0.0 0.0 0.0 0.0 0.0 0.0 0.0 0.0 0.0 0.0 0.0 0.0 0.0 0.0 0.0 0.0 0.0 0.0 0.0 0.0 0.0 0.0 0.0 0.0 0.0 0.0 0.0 0.0 0.0 0.0
0.0 0.0 0.9 0.0 0.0 0.0 0.0 0.0 0.0 1.5 1.0 1.0 2.8 2.1 0.0 0.0 0.0 0.0 0.0 0.0 0.0 0.0 0.0 0.0 0.0 0.0 0.0 0.0 0.0 0.0 0.0 0.0 0.0 0.0 0.0 0.0 0.0 0.0 0.0 0.0 0.0 0.0 0.0 0.0
0.0 0.4 2.4 1.1 0.1 0.0 0.0 0.0 0.0 0.0 0.4 2.3 6.1 1.7 0.0 0.0 0.0 0.0 0.0 0.0 0.0 0.0 0.0 0.0 0.0 0.0 0.0 0.0 0.0 0.0 0.0 0.0 0.0 0.0 0.0 0.0 0.0 0.0 0.0 0.0 0.0 0.1 0.1 0.1
nan 0.0 0.1 0.6 0.0 0.0 0.2 0.0 0.0 0.0 2.7 1.9 1.1 0.3 0.0 0.0 0.0 0.0 0.0 0.0 0.0 0.0 0.0 0.0 0.0 0.0 0.0 0.0 0.0 0.0 0.0 0.0 0.0 0.0 0.0 0.0 0.0 0.0 0.0 0.0 0.1 0.1 0.1 0.1
0.0 0.4 0.0 0.0 0.0 0.0 0.0 0.0 0.0 0.1 0.1 0.4 0.1 0.1 0.0 0.0 0.0 0.0 0.0 0.0 0.0 0.0 0.0 0.0 0.0 0.0 0.0 0.0 0.0 0.0 0.0 0.0 0.0 0.0 0.0 0.0 0.0 0.1 0.1 0.1 0.2 0.2 0.1 0.1
0.0 1.0 0.1 0.8 0.0 0.0 0.1 0.0 0.0 0.0 0.0 0.1 0.3 0.4 0.0 0.0 0.0 0.0 0.0 0.0 0.0 0.0 0.0 0.0 0.0 0.0 0.0 0.0 0.0 0.0 0.0 0.0 0.1 0.1 0.1 0.2 0.2 0.3 0.3 0.3 0.5 0.2 0.2 0.2
0.1 1.2 5.0 6.6 0.0 0.1 3.6 0.1 0.0 0.0 0.0 0.0 0.4 0.1 0.0 0.0 0.0 0.0 0.1 0.0 0.0 0.0 0.0 0.0 0.0 0.0 0.0 0.0 0.0 0.0 0.0 0.1 0.2 0.3 0.6 0.6 0.5 0.6 0.4 0.3 0.5 0.4 0.3 0.4
0.1 2.5 4.5 10.4 7.1 17.2 0.5 0.0 0.0 0.0 0.0 0.0 0.0 0.0 0.0 0.0 0.0 0.0 0.0 0.0 0.0 0.0 0.0 0.0 0.0 0.0 0.0 0.0 0.0 0.1 0.2 0.3 0.5 0.9 1.2 0.6 0.8 1.0 0.3 0.4 0.4 0.3 0.2 0.3
0.0 0.5 5.2 15.9 11.0 0.6 0.0 0.0 0.0 0.0 0.1 0.0 0.0 0.0 0.0 0.0 0.0 0.0 0.0 0.0 0.0 0.0 0.0 0.0 0.0 0.0 0.0 0.0 0.1 0.3 0.4 0.4 0.6 0.5 0.5 0.4 1.2 2.1 0.5 2.3 0.4 0.2 1.2 0.8
0.0 0.1 1.4 11.5 16.9 14.8 0.1 0.0 0.0 0.0 0.5 0.0 0.0 0.0 0.0 0.1 2.3 0.2 0.0 0.0 0.0 0.0 0.0 0.0 0.0 0.1 0.2 0.2 0.3 0.5 0.3 0.4 0.5 0.4 0.4 0.4 1.2 2.6 2.1 1.2 1.8 2.0 1.9 1.8
3.1 5.9 6.5 7.4 12.4 2.7 0.0 0.0 0.0 4.0 0.2 0.0 0.0 0.0 0.1 0.9 0.1 0.0 0.0 0.0 0.0 0.0 0.0 0.0 0.1 0.2 0.3 0.6 0.8 0.5 0.3 0.5 0.5 0.6 0.5 0.6 0.9 2.6 1.6 2.0 1.8 2.3 2.6 1.4
1.5 6.6 15.2 10.0 11.2 13.2 0.0 0.0 0.0 0.0 0.0 0.0 0.0 0.0 0.2 0.1 0.0 0.0 0.0 0.0 0.0 0.0 0.0 0.1 0.4 0.3 0.5 0.8 1.7 0.7 0.5 0.4 0.8 1.1 1.2 2.0 3.1 2.5 2.6 4.7 3.1 4.0 3.5 3.6
3.4 0.3 2.4 0.3 1.6 0.0 0.0 0.0 0.0 0.0 0.1 0.2 0.2 0.1 0.1 0.2 0.1 0.0 0.0 0.0 0.0 0.0 0.3 0.4 0.6 0.5 0.3 0.6 1.8 3.2 0.4 0.7 1.3 3.3 4.1 4.5 4.0 3.9 3.7 5.5 3.4 5.0 4.1 4.9
0.1 0.0 0.4 0.3 0.1 0.0 0.0 0.0 0.0 0.1 0.1 0.0 0.2 0.1 0.5 0.7 0.5 1.2 0.9 0.5 0.3 0.3 0.6 0.8 1.3 1.3 0.9 1.0 1.3 1.7 1.5 1.5 6.4 6.3 3.4 2.6 3.2 2.4 3.1 3.8 4.6 6.4 4.9 3.9
0.1 0.0 0.1 0.8 0.1 0.0 0.0 0.0 0.0 0.1 0.2 0.3 0.3 0.4 0.3 0.4 2.8 1.7 2.0 1.2 0.8 0.8 0.9 1.1 1.6 1.5 1.5 1.4 1.2 1.9 2.3 2.9 3.7 3.9 2.1 3.2 4.3 4.7 2.7 2.0 2.4 2.1 1.1 2.8
0.0 0.0 0.2 2.2 0.1 0.2 0.4 0.1 0.1 0.3 0.1 0.1 0.7 1.5 0.8 1.1 2.0 2.2 1.9 1.1 1.3 1.9 1.7 1.6 1.2 1.4 1.5 1.8 2.0 3.0 4.7 4.6 4.5 2.4 3.7 3.8 3.7 2.9 2.4 2.2 1.8 nan nan nan
Water_Equivalent
0.00 0.00 0.00 0.00 0.00 0.00 0.00 0.00 0.00 0.00 0.00 0.00 0.00 0.00 0.00 0.00 0.00 0.00 0.00 0.00 0.00 0.00 0.00 0.00 0.00 0.00 0.00 0.00 0.00 0.00 0.00 0.00 0.00 0.00 0.00 0.00 0.00 0.00 0.00 0.00 0.00 0.00 0.00 0.00
0.00 0.00 0.00 0.00 0.00 0.00 0.00 0.00 0.00 0.00 0.00 0.00 0.00 0.00 0.00 0.00 0.00 0.00 0.00 0.00 0.00 0.00 0.00 0.00 0.00 0.00 0.00 0.00 0.00 0.00 0.00 0.00 0.00 0.00 0.00 0.00 0.00 0.00 0.00 0.00 0.00 0.00 0.00 0.00
0.00 0.00 0.00 0.00 0.00 0.00 0.00 0.00 0.00 0.00 0.00 0.00 0.00 0.00 0.00 0.00 0.00 0.00 0.00 0.00 0.00 0.00 0.00 0.00 0.00 0.00 0.00 0.00 0.00 0.00 0.00 0.00 0.00 0.00 0.00 0.00 0.00 0.00 0.00 0.00 0.00 0.00 0.00 0.00
0.00 0.00 0.00 0.00 0.00 0.00 0.00 0.00 0.00 0.00 0.00 0.00 0.00 0.01 0.00 0.00 0.00 0.00 0.00 0.00 0.00 0.00 0.00 0.00 0.00 0.00 0.00 0.00 0.00 0.00 0.00 0.00 0.00 0.00 0.00 0.00 0.00 0.00 0.00 0.00 0.00 0.00 0.00 0.00
0.00 0.00 0.00 0.00 0.00 0.00 0.00 0.00 0.00 0.00 0.00 0.00 0.00 0.00 0.00 0.00 0.00 0.00 0.00 0.00 0.00 0.00 0.00 0.00 0.00 0.00 0.00 0.00 0.00 0.00 0.00 0.00 0.00 0.00 0.00 0.00 0.00 0.00 0.00 0.00 0.00 0.00 0.00 0.00
0.00 0.00 0.00 0.00 0.00 0.00 0.00 0.00 0.00 0.00 0.00 0.05 0.00 0.00 0.00 0.00 0.00 0.00 0.00 0.00 0.00 0.00 0.00 0.00 0.00 0.00 0.00 0.00 0.00 0.00 0.00 0.00 0.00 0.00 0.00 0.00 0.00 0.00 0.00 0.00 0.00 0.00 0.00 0.00
0.00 0.00 0.00 0.00 0.00 0.00 0.00 0.00 0.10 0.18 0.41 0.23 0.00 0.03 0.00 0.00 0.00 0.00 0.00 0.00 0.00 0.00 0.00 0.00 0.00 0.00 0.00 0.00 0.00 0.00 0.00 0.00 0.00 0.00 0.00 0.00 0.00 0.00 0.00 0.00 0.00 0.00 0.00 0.00
0.00 0.00 0.00 0.00 0.00 0.00 0.00 0.00 0.20 0.49 0.43 0.20 0.04 0.09 0.01 0.00 0.00 0.00 0.00 0.00 0.00 0.00 0.00 0.00 0.00 0.00 0.00 0.00 0.00 0.00 0.00 0.00 0.00 0.00 0.00 0.00 0.00 0.00 0.00 0.00 0.00 0.00 0.00 0.00
0.00 0.00 0.00 0.00 0.00 0.00 0.00 0.00 0.00 0.12 0.62 0.60 0.03 0.00 0.00 0.00 0.00 0.00 0.00 0.00 0.00 0.00 0.00 0.00 0.00 0.00 0.00 0.00 0.00 0.00 0.00 0.00 0.00 0.00 0.00 0.00 0.00 0.00 0.00 0.00 0.00 0.00 0.00 0.00
0.00 0.02 0.00 0.00 0.00 0.00 0.00 0.00 0.10 0.11 0.73 0.54 0.00 0.00 0.00 0.00 0.00 0.00 0.00 0.00 0.00 0.00 0.00 0.00 0.00 0.00 0.00 0.00 0.00 0.00 0.00 0.00 0.00 0.00 0.00 0.00 0.00 0.00 0.00 0.00 0.00 0.00 0.00 0.00
0.00 0.00 0.01 0.00 0.00 0.00 0.00 0.00 0.00 0.00 0.12 0.51 0.41 0.06 0.00 0.00 0.00 0.00 0.00 0.00 0.00 0.00 0.00 0.00 0.00 0.00 0.00 0.00 0.00 0.00 0.00 0.00 0.00 0.00 0.00 0.00 0.00 0.00 0.00 0.00 0.00 0.00 0.00 0.00
0.00 0.00 0.16 0.00 0.00 0.00 0.00 0.00 0.00 0.23 0.14 0.15 0.39 0.25 0.00 0.00 0.00 0.00 0.00 0.00 0.00 0.00 0.00 0.00 0.00 0.00 0.00 0.00 0.00 0.00 0.00 0.00 0.00 0.00 0.00 0.00 0.00 0.00 0.00 0.00 0.00 0.00 0.00 0.01
0.00 0.08 0.54 0.30 0.02 0.00 0.00 0.00 0.00 0.00 0.07 0.34 0.79 0.25 0.00 0.00 0.00 0.00 0.00 0.00 0.00 0.00 0.00 0.00 0.00 0.00 0.00 0.00 0.00 0.00 0.00 0.00 0.00 0.00 0.00 0.00 0.00 0.00 0.00 0.00 0.00 0.02 0.02 0.02
nan 0.00 0.02 0.14 0.01 0.00 0.03 0.00 0.00 0.01 0.45 0.36 0.21 0.08 0.00 0.00 0.00 0.00 0.00 0.00 0.00 0.00 0.00 0.00 0.00 0.00 0.00 0.00 0.00 0.00 0.00 0.00 0.00 0.00 0.00 0.00 0.00 0.00 0.00 0.01 0.02 0.03 0.03 0.02
0.00 0.07 0.01 0.01 0.00 0.00 0.00 0.01 0.00 0.02 0.02 0.06 0.03 0.02 0.00 0.00 0.00 0.00 0.00 0.00 0.00 0.00 0.00 0.00 0.00 0.00 0.00 0.00 0.00 0.00 0.00 0.00 0.00 0.00 0.00 0.00 0.01 0.02 0.03 0.03 0.04 0.03 0.03 0.02
0.00 0.23 0.04 0.23 0.00 0.00 0.01 0.00 0.00 0.00 0.01 0.02 0.07 0.10 0.00 0.00 0.00 0.00 0.00 0.00 0.01 0.01 0.00 0.00 0.00 0.00 0.00 0.00 0.00 0.00 0.00 0.00 0.01 0.01 0.02 0.03 0.04 0.07 0.06 0.06 0.09 0.05 0.05 0.05
0.04 0.36 0.76 1.02 0.02 0.02 0.46 0.03 0.00 0.00 0.00 0.00 0.13 0.05 0.00 0.00 0.01 0.01 0.01 0.00 0.01 0.00 0.00 0.00 0.00 0.00 0.00 0.00 0.00 0.00 0.00 0.01 0.04 0.05 0.11 0.12 0.09 0.12 0.08 0.07 0.09 0.07 0.07 0.08
0.02 0.40 0.72 1.55 0.98 1.93 0.13 0.00 0.00 0.00 0.00 0.00 0.00 0.00 0.00 0.01 0.00 0.00 0.00 0.00 0.00 0.00 0.00 0.00 0.00 0.00 0.00 0.00 0.00 0.01 0.03 0.05 0.08 0.15 0.23 0.10 0.14 0.17 0.06 0.07 0.07 0.06 0.04 0.06
0.01 0.08 0.79 1.89 1.38 0.14 0.01 0.00 0.00 0.01 0.01 0.00 0.00 0.00 0.00 0.00 0.00 0.00 0.00 0.00 0.00 0.00 0.00 0.00 0.00 0.00 0.00 0.01 0.02 0.04 0.06 0.07 0.09 0.08 0.09 0.07 0.20 0.33 0.09 0.37 0.07 0.05 0.22 0.16
0.00 0.01 0.21 1.48 1.90 1.59 0.01 0.00 0.00 0.00 0.07 0.00 0.00 0.00 0.00 0.01 0.17 0.02 0.00 0.00 0.00 0.00 0.00 0.00 0.00 0.01 0.02 0.02 0.04 0.06 0.04 0.05 0.06 0.06 0.07 0.06 0.19 0.41 0.33 0.20 0.29 0.36 0.35 0.33
0.39 0.74 0.85 1.00 1.51 0.46 0.00 0.00 0.00 0.45 0.03 0.00 0.00 0.00 0.01 0.08 0.01 0.00 0.00 0.00 0.00 0.00 0.00 0.00 0.02 0.03 0.03 0.06 0.09 0.06 0.04 0.05 0.05 0.06 0.06 0.09 0.15 0.43 0.27 0.32 0.31 0.38 0.43 0.24
0.17 0.69 1.64 1.13 1.27 1.52 0.00 0.00 0.00 0.00 0.00 0.00 0.00 0.00 0.02 0.01 0.00 0.00 0.00 0.00 0.00 0.00 0.00 0.01 0.05 0.03 0.05 0.10 0.16 0.08 0.07 0.04 0.07 0.11 0.14 0.29 0.47 0.42 0.44 0.79 0.49 0.66 0.57 0.57
0.40 0.04 0.33 0.06 0.31 0.00 0.00 0.00 0.00 0.00 0.02 0.03 0.04 0.01 0.01 0.02 0.01 0.00 0.00 0.00 0.00 0.00 0.04 0.05 0.07 0.06 0.05 0.08 0.18 0.28 0.04 0.07 0.15 0.51 0.72 0.71 0.63 0.62 0.60 0.91 0.54 0.81 0.69 0.82
0.03 0.00 0.11 0.08 0.02 0.01 0.00 0.00 0.00 0.01 0.02 0.01 0.03 0.01 0.06 0.05 0.04 0.16 0.12 0.06 0.04 0.05 0.07 0.09 0.14 0.16 0.10 0.12 0.14 0.15 0.13 0.17 1.12 1.04 0.51 0.39 0.50 0.39 0.48 0.68 0.81 1.13 0.85 0.65
0.02 0.01 0.05 0.18 0.03 0.02 0.01 0.00 0.00 0.01 0.03 0.05 0.04 0.05 0.02 0.03 0.28 0.19 0.19 0.13 0.07 0.08 0.10 0.12 0.17 0.14 0.14 0.12 0.11 0.17 0.20 0.36 0.60 0.64 0.29 0.48 0.71 0.79 0.44 0.34 0.44 0.38 0.21 0.52
0.00 0.00 0.04 0.27 0.01 0.03 0.06 0.01 0.02 0.04 0.01 0.01 0.07 0.14 0.09 0.14 0.16 0.17 0.16 0.09 0.11 0.15 0.15 0.15 0.12 0.13 0.11 0.15 0.18 0.26 0.53 0.54 0.56 0.32 0.53 0.54 0.54 0.48 0.41 0.38 0.31 nan nan nan
SL_Ratio
nan nan nan nan nan nan nan nan nan nan nan nan nan nan nan nan nan nan nan nan nan nan nan nan nan nan nan nan nan nan nan nan nan nan nan nan nan nan nan nan nan nan nan nan
nan nan nan nan nan nan nan nan nan nan nan nan nan nan nan nan nan nan nan nan nan nan nan nan nan nan nan nan nan nan nan nan nan nan nan nan nan nan nan nan nan nan nan nan
nan nan nan nan nan nan nan nan nan nan nan nan nan nan nan nan nan nan nan nan nan nan nan nan nan nan nan nan nan nan nan nan nan nan nan nan nan nan nan nan nan nan nan nan
nan nan nan nan nan nan nan nan nan nan nan nan nan 6.6 nan nan nan nan nan nan nan nan nan nan nan nan nan nan nan nan nan nan nan nan nan nan nan nan nan nan nan nan nan nan
nan nan nan nan nan nan nan nan nan nan nan nan nan nan nan nan nan nan nan nan nan nan nan nan nan nan nan nan nan nan nan nan nan nan nan nan nan nan nan nan nan nan nan nan
nan nan nan nan nan nan nan nan nan nan nan 6.5 nan nan nan nan nan nan nan nan nan nan nan nan nan nan nan nan nan nan nan nan nan nan nan nan nan nan nan nan nan nan nan nan
nan nan nan nan nan nan nan nan 6.3 6.6 7.0 6.6 nan 6.3 nan nan nan nan nan nan nan nan nan nan nan nan nan nan nan nan nan nan nan nan nan nan nan nan nan nan nan nan nan nan
nan 5.0 nan nan nan nan nan nan 6.2 9.0 7.4 6.5 6.4 6.8 5.0 nan nan nan nan nan nan nan nan nan nan nan nan nan nan nan nan nan nan nan nan nan nan nan nan nan nan nan nan nan
5.7 5.7 nan nan nan nan nan nan nan 6.7 9.2 7.8 5.5 nan nan nan nan nan nan nan nan nan nan nan nan nan nan nan nan nan nan nan nan nan nan nan nan nan nan nan nan nan nan nan
nan 5.1 nan nan nan nan nan nan 6.3 6.1 8.5 8.8 6.8 6.0 nan nan nan nan nan nan nan nan nan nan nan nan nan nan nan nan nan nan nan nan nan nan nan nan nan nan nan nan nan nan
nan 5.6 2.6 nan nan nan nan nan nan 6.0 6.1 7.9 8.2 7.7 nan nan nan nan nan nan nan nan nan nan nan nan nan nan nan nan nan nan nan nan nan nan nan nan nan nan nan nan nan nan
nan nan 5.9 nan nan nan nan nan nan 6.6 7.1 6.5 7.3 8.2 nan nan nan nan nan nan nan nan nan nan nan nan nan nan nan nan nan nan nan nan nan nan nan nan nan nan nan nan nan 4.5
nan 4.7 4.5 3.5 3.3 nan nan nan nan nan 5.9 6.8 7.7 6.9 nan nan nan nan nan nan nan nan nan nan nan nan nan nan nan nan nan nan nan nan nan nan nan nan nan nan 4.3 4.4 4.5 4.5
nan nan 3.1 4.6 4.0 nan 5.4 nan nan 3.3 6.1 5.1 5.4 4.4 2.5 nan nan nan nan nan nan nan nan nan nan nan nan nan nan nan nan nan nan nan nan nan nan nan 5.0 4.4 4.5 4.6 4.6 4.6
nan 5.4 3.3 2.8 nan nan 5.8 6.0 4.3 4.9 4.6 6.8 4.6 6.1 nan nan nan nan nan nan nan 5.0 nan nan nan nan nan nan nan nan nan nan nan nan nan nan 4.2 4.4 4.5 4.7 4.8 4.8 4.7 4.6
nan 4.2 3.3 3.6 3.1 nan 5.0 nan nan 5.0 5.6 3.4 4.2 3.9 nan nan nan nan nan nan 3.8 3.1 nan nan nan nan nan nan nan nan nan nan 5.4 4.9 4.8 4.9 4.8 4.9 5.0 5.0 5.1 5.0 5.0 5.0
3.3 3.3 6.5 6.5 3.0 3.6 7.9 3.9 nan 6.0 nan 0.0 3.0 2.7 nan 5.5 5.2 4.7 5.0 2.7 3.0 0.0 nan nan nan nan nan nan nan 11.7 10.0 5.3 5.3 5.9 5.3 5.2 5.3 5.4 5.3 5.1 5.3 5.3 5.2 5.1
5.9 6.3 6.2 6.7 7.2 8.9 3.7 nan nan nan nan nan nan nan nan 4.8 5.0 5.0 nan nan nan nan nan nan nan 15.0 nan 10.0 8.0 5.6 5.5 5.8 6.2 5.7 5.4 5.4 5.9 6.0 5.5 5.5 5.5 5.3 5.1 5.1
5.8 5.8 6.6 8.4 7.9 4.0 2.9 nan nan 6.9 6.6 nan nan 5.0 5.0 nan 7.0 nan nan nan nan nan nan nan nan nan 10.0 7.6 6.1 7.4 6.7 6.4 6.4 5.8 5.7 5.6 6.0 6.5 5.9 6.4 5.6 5.2 5.3 5.1
7.3 7.0 6.8 7.8 8.9 9.3 4.7 nan nan nan 7.0 nan nan nan 7.0 7.6 13.2 10.2 nan nan nan nan nan nan 10.0 6.0 6.9 7.4 7.6 7.3 8.1 7.5 7.3 7.0 6.4 6.2 6.0 6.3 6.5 5.8 6.1 5.5 5.3 5.4
8.0 8.0 7.6 7.4 8.2 5.9 nan nan nan 8.8 4.7 nan nan nan 7.2 11.4 8.9 10.0 nan nan nan nan nan 5.0 6.1 8.1 9.3 9.8 8.9 8.4 7.6 9.6 10.3 10.5 8.6 6.7 6.2 6.1 6.0 6.1 5.8 6.1 6.0 5.8
9.1 9.5 9.2 8.9 8.8 8.7 nan nan 9.3 6.3 nan 5.0 6.7 5.6 9.4 9.3 8.3 nan nan nan nan 20.0 15.0 7.4 8.6 7.9 9.0 8.6 10.6 8.9 7.5 9.4 10.6 10.1 8.9 6.9 6.5 6.0 5.9 5.9 6.2 6.0 6.1 6.2
8.5 7.7 7.4 5.5 5.1 3.0 nan nan nan nan 5.8 6.1 6.7 9.1 10.3 11.4 10.9 16.3 15.0 nan 16.3 17.5 6.7 7.1 8.5 8.0 7.2 8.3 10.1 11.5 9.1 9.8 8.6 6.4 5.7 6.4 6.3 6.2 6.2 6.1 6.3 6.1 6.0 5.9
5.4 7.5 3.6 4.3 4.7 3.4 nan nan nan 5.1 5.6 6.4 6.1 9.0 8.5 15.9 13.4 7.6 7.3 8.6 8.1 7.4 8.6 8.9 8.7 8.2 9.2 8.8 9.1 11.6 11.1 8.8 5.7 6.1 6.7 6.6 6.5 6.3 6.3 5.6 5.7 5.7 5.8 5.9
2.7 4.0 2.9 4.5 2.7 2.5 2.8 5.0 nan 5.7 6.1 6.9 7.0 7.8 16.5 13.7 10.1 8.9 10.7 9.4 10.5 9.8 9.3 9.0 9.8 10.7 10.7 11.3 10.9 11.0 11.4 8.0 6.3 6.1 7.3 6.8 6.1 5.9 6.1 5.8 5.5 5.4 5.4 5.4
5.0 4.2 5.0 8.1 5.8 6.0 6.5 5.4 6.2 7.0 7.3 7.3 10.0 11.3 9.2 7.8 12.3 13.6 11.8 11.4 11.3 12.1 11.1 10.5 9.6 11.2 13.4 12.2 11.4 11.5 8.8 8.4 7.9 7.3 6.9 6.9 6.8 6.1 5.9 5.8 5.9 nan nan nan